Date String (YYYY-MM-DD hh:mm:ss) UTC,Instrument flags,absolute air pressure of the measurement (hPa),sample flow rate (lpm),inlet stack bypass flow (lpm),air temperature of the measurement (°C),ambient temperature measured by the external sensor (°C),aerosol sample conditioner tube jacket temperature (°C),OPC LED temperature (°C),internal box temperature (°C),relative humidity of the measurement (%),span deviation,mass concentration of particles derived from Lorenz-Mie calculation of OPC scattering (μg/m³),mass concentration of particles derived from Lorenz-Mie calculation of OPC scattering (μg/m³),mass concentration of particles derived from Lorenz-Mie calculation of OPC scattering (μg/m³)
DateTimeUTC,F1_M11,P_M11,Q1_M11,Q2_M11,T1_M11,T2_M11,T3_M11,T4_M11,T5_M11,U1_M11,ZSPAN_M11,X0_M11,X2_M11,X1_M11
2024-01-09 08:00:00,SystemResetWarning,0822.4,5.01,000.00,018.7,017.3,000.0,027.3,020.0,5.4,0000.0,0002.67,0001.29,0000.87
2024-01-09 08:01:00,SystemResetWarning,0822.4,5.00,000.00,018.7,017.3,000.0,027.3,020.0,5.5,0000.0,0002.52,0001.31,0000.87
2024-01-09 08:02:00,SystemResetWarning,0822.4,5.00,000.00,018.7,017.2,000.0,027.3,020.0,5.5,0000.0,0002.79,0001.30,0000.87
2024-01-09 08:03:00,SystemResetWarning,0822.3,5.00,000.00,018.7,017.4,000.0,027.3,020.2,5.6,0000.0,0002.85,0001.29,0000.87
2024-01-09 08:04:00,SystemResetWarning,0822.4,5.00,000.00,018.8,018.2,000.0,027.2,020.6,5.5,0000.0,0003.28,0001.26,0000.87
2024-01-09 08:05:00,SystemResetWarning,0822.4,4.99,000.00,019.0,018.8,000.0,027.2,020.7,5.4,0000.0,0003.25,0001.26,0000.88
2024-01-09 08:06:00,SystemResetWarning,0822.3,5.00,000.00,019.0,018.7,000.0,027.2,020.3,5.4,0000.0,0003.21,0001.23,0000.87
2024-01-09 08:07:00,SystemResetWarning,0822.3,5.01,000.00,018.9,018.5,000.0,027.2,020.1,5.4,0000.0,0003.17,0001.21,0000.87
2024-01-09 08:08:00,SystemResetWarning,0822.3,5.00,000.00,018.9,018.2,000.0,027.2,020.0,5.5,0000.0,0003.15,0001.20,0000.86
2024-01-09 08:09:00,SystemResetWarning,0822.2,4.99,000.00,018.8,017.9,000.0,027.2,020.0,5.5,0000.0,0003.20,0001.19,0000.86
2024-01-09 08:10:00,SystemResetWarning,0822.2,5.01,000.00,018.8,017.7,000.0,027.3,020.0,5.5,0000.0,0003.29,0001.22,0000.85
2024-01-09 08:11:00,SystemResetWarning,0822.2,5.00,000.00,018.8,017.6,000.0,027.3,020.0,5.5,0000.0,0003.29,0001.23,0000.85
2024-01-09 08:12:00,SystemResetWarning,0822.2,5.00,000.00,018.8,017.4,000.0,027.3,020.0,5.5,0000.0,0003.30,0001.21,0000.86
2024-01-09 08:13:00,SystemResetWarning,0822.2,4.99,000.00,018.8,017.3,000.0,027.3,020.0,5.6,0000.0,0003.14,0001.25,0000.86
2024-01-09 08:14:00,SystemResetWarning,0822.2,5.00,000.00,018.7,017.2,000.0,027.3,020.0,5.6,0000.0,0003.11,0001.27,0000.87
2024-01-09 08:15:00,SystemResetWarning,0822.1,5.00,000.00,018.7,017.3,000.0,027.3,020.1,5.5,0000.0,0002.73,0001.27,0000.87
2024-01-09 08:16:00,SystemResetWarning,0822.1,5.02,000.00,018.8,017.9,000.0,027.2,020.5,5.4,0000.0,0002.54,0001.24,0000.86
2024-01-09 08:17:00,SystemResetWarning,0822.1,5.00,000.00,019.0,018.7,000.0,027.2,020.8,5.5,0000.0,0002.63,0001.26,0000.85
2024-01-09 08:18:00,SystemResetWarning,0822.1,4.99,000.00,019.0,018.7,000.0,027.2,020.5,5.4,0000.0,0002.67,0001.27,0000.86
2024-01-09 08:19:00,SystemResetWarning,0822.2,5.00,000.00,019.0,018.5,000.0,027.2,020.2,5.4,0000.0,0002.71,0001.29,0000.86
2024-01-09 08:20:00,SystemResetWarning,0822.2,5.01,000.00,018.9,018.3,000.0,027.2,020.0,5.4,0000.0,0002.72,0001.32,0000.87
2024-01-09 08:21:00,SystemResetWarning,0822.2,5.00,000.00,018.8,018.0,000.0,027.2,020.0,5.4,0000.0,0002.61,0001.30,0000.88
2024-01-09 08:22:00,SystemResetWarning,0822.2,5.00,000.00,018.8,017.8,000.0,027.2,020.0,5.5,0000.0,0002.52,0001.27,0000.89
2024-01-09 08:23:00,SystemResetWarning,0822.2,5.00,000.00,018.8,017.7,000.0,027.3,020.0,5.5,0000.0,0002.58,0001.30,0000.89
2024-01-09 08:24:00,SystemResetWarning,0822.1,4.99,000.00,018.8,017.5,000.0,027.3,020.0,5.5,0000.0,0002.44,0001.29,0000.90
2024-01-09 08:25:00,SystemResetWarning,0822.2,4.99,000.00,018.8,017.4,000.0,027.3,020.0,5.5,0000.0,0002.34,0001.28,0000.91
2024-01-09 08:26:00,SystemResetWarning,0822.2,5.00,000.00,018.7,017.3,000.0,027.3,020.0,5.4,0000.0,0002.40,0001.27,0000.90
2024-01-09 08:27:00,SystemResetWarning,0822.2,5.01,000.00,018.7,017.4,000.0,027.3,020.2,5.4,0000.0,0003.17,0001.26,0000.90
2024-01-09 08:28:00,SystemResetWarning,0822.3,5.01,000.00,018.9,018.2,000.0,027.2,020.6,5.4,0000.0,0003.55,0001.25,0000.92
2024-01-09 08:29:00,SystemResetWarning,0822.2,4.99,000.00,019.0,018.9,000.0,027.2,020.7,5.4,0000.0,0004.65,0001.25,0000.92
2024-01-09 08:30:00,SystemResetWarning,0822.2,4.99,000.00,019.0,018.8,000.0,027.2,020.3,5.3,0000.0,0004.64,0001.24,0000.92
2024-01-09 08:31:00,SystemResetWarning,0822.2,4.99,000.00,018.9,018.6,000.0,027.2,020.1,5.3,0000.0,0004.84,0001.24,0000.91
2024-01-09 08:32:00,SystemResetWarning,0822.2,5.01,000.00,018.9,018.3,000.0,027.2,020.0,5.4,0000.0,0005.06,0001.25,0000.90
2024-01-09 08:33:00,SystemResetWarning,0822.2,5.01,000.00,018.9,018.1,000.0,027.2,020.0,5.4,0000.0,0005.84,0001.29,0000.90
2024-01-09 08:34:00,SystemResetWarning,0822.2,5.00,000.00,018.8,017.9,000.0,027.2,020.0,5.4,0000.0,0006.09,0001.29,0000.91
2024-01-09 08:35:00,SystemResetWarning,0822.2,5.00,000.00,018.8,017.7,000.0,027.3,020.0,5.3,0000.0,0006.07,0001.27,0000.89
2024-01-09 08:36:00,SystemResetWarning,0822.2,5.00,000.00,018.8,017.5,000.0,027.3,020.0,5.3,0000.0,0005.98,0001.23,0000.88
2024-01-09 08:37:00,SystemResetWarning,0822.2,5.00,000.00,018.8,017.4,000.0,027.3,020.0,5.3,0000.0,0006.55,0001.24,0000.87
2024-01-09 08:38:00,SystemResetWarning,0822.2,4.99,000.00,018.7,017.3,000.0,027.3,020.0,5.3,0000.0,0005.86,0001.26,0000.88
2024-01-09 08:39:00,SystemResetWarning,0822.2,5.01,000.00,018.8,017.7,000.0,027.3,020.3,5.3,0000.0,0005.38,0001.25,0000.87
2024-01-09 08:40:00,SystemResetWarning,0822.2,5.00,000.00,018.9,018.5,000.0,027.2,020.7,5.2,0000.0,0004.30,0001.25,0000.86
2024-01-09 08:41:00,SystemResetWarning,0822.1,4.99,000.00,019.0,018.9,000.0,027.2,020.7,5.1,0000.0,0004.38,0001.27,0000.87
2024-01-09 08:42:00,SystemResetWarning,0822.1,4.99,000.00,019.0,018.8,000.0,027.2,020.3,5.2,0000.0,0004.41,0001.28,0000.88
2024-01-09 08:43:00,SystemResetWarning,0822.1,5.00,000.00,019.0,018.6,000.0,027.2,020.1,5.2,0000.0,0004.59,0001.29,0000.89
2024-01-09 08:44:00,SystemResetWarning,0822.1,5.01,000.00,018.9,018.4,000.0,027.2,020.0,5.2,0000.0,0004.14,0001.28,0000.89
2024-01-09 08:45:00,SystemResetWarning,0822.1,5.00,000.00,018.9,018.2,000.0,027.2,020.0,5.2,0000.0,0003.71,0001.27,0000.88
2024-01-09 08:46:00,SystemResetWarning,0822.1,4.99,000.00,018.8,018.0,000.0,027.3,020.0,5.2,0000.0,0003.96,0001.34,0000.88
2024-01-09 08:47:00,SystemResetWarning,0822.1,5.00,000.00,018.8,017.7,000.0,027.3,020.0,5.2,0000.0,0004.07,0001.36,0000.89
2024-01-09 08:48:00,SystemResetWarning,0822.1,5.00,000.00,018.8,017.6,000.0,027.3,020.0,5.2,0000.0,0003.53,0001.35,0000.89
2024-01-09 08:49:00,SystemResetWarning,0822.1,5.01,000.00,018.7,017.5,000.0,027.3,020.0,5.2,0000.0,0003.22,0001.34,0000.88
2024-01-09 08:50:00,SystemResetWarning,0822.1,5.00,000.00,018.7,017.3,000.0,027.3,020.0,5.1,0000.0,0003.23,0001.37,0000.87
2024-01-09 08:51:00,SystemResetWarning,0822.1,5.00,000.00,018.7,017.3,000.0,027.3,020.0,5.1,0000.0,0003.27,0001.37,0000.87
2024-01-09 08:52:00,SystemResetWarning,0822.1,5.00,000.00,018.7,017.4,000.0,027.3,020.2,5.1,0000.0,0003.25,0001.35,0000.85
2024-01-09 08:53:00,SystemResetWarning,0822.1,5.01,000.00,018.9,018.2,000.0,027.2,020.6,5.0,0000.0,0003.31,0001.34,0000.82
2024-01-09 08:54:00,SystemResetWarning,0822.1,5.00,000.00,019.0,018.9,000.0,027.2,020.8,5.1,0000.0,0002.82,0001.29,0000.82
2024-01-09 08:55:00,SystemResetWarning,0822.0,4.99,000.00,019.0,018.8,000.0,027.2,020.4,5.1,0000.0,0002.76,0001.27,0000.80
2024-01-09 08:56:00,SystemResetWarning,0822.0,4.99,000.00,019.0,018.7,000.0,027.2,020.2,5.1,0000.0,0002.56,0001.24,0000.79
2024-01-09 08:57:00,SystemResetWarning,0822.0,5.00,000.00,018.9,018.6,000.0,027.2,020.1,5.1,0000.0,0002.36,0001.20,0000.79
2024-01-09 08:58:00,SystemResetWarning,0822.0,5.01,000.00,018.9,018.4,000.0,027.2,020.0,5.1,0000.0,0002.39,0001.22,0000.78
2024-01-09 08:59:00,SystemResetWarning,0822.0,5.00,000.00,018.8,018.1,000.0,027.3,020.0,5.1,0000.0,0002.40,0001.20,0000.77
